EA5AER-5 Weather Reports


Display with metric or nautical units.
time (UTC)temp
F
wind
direction
speed
MPH
gust
MPH
rain 1hr
in
rain 24hr
in
rain mn
in
humidity
%
barometer
mb
20260508045842 58 215 3.0 5.0 0.00 0.96 0.01 81 1009.8
20260508043839 58 243 2.0 3.0 0.00 0.96 0.01 80 1009.6
20260508041842 58 243 2.0 3.0 0.00 0.96 0.01 80 1009.6
20260508035816 58 207 2.0 3.0 0.00 0.96 0.01 81 1009.8
20260508033929 58 216 2.0 3.0 0.00 0.96 0.01 81 1009.8
20260508031751 58 236 1.0 3.0 0.00 0.96 0.01 82 1010.0
20260508025613 58 236 1.0 3.0 0.00 0.96 0.01 82 1010.0
20260508023648 58 217 2.0 5.0 0.01 0.96 0.01 82 1010.1
20260508021632 58 217 2.0 5.0 0.01 0.96 0.01 82 1010.1
20260508015554 58 217 2.0 5.0 0.01 0.96 0.01 82 1010.1
20260508013731 58 240 2.0 3.0 0.00 0.95 0.00 81 1010.7
20260508011809 57 253 2.0 3.0 0.00 0.95 0.00 86 1010.9
20260508005803 57 253 2.0 3.0 0.00 0.95 0.00 86 1010.9
20260508003729 57 253 2.0 3.0 0.00 0.95 0.00 86 1010.9
20260508001833 57 253 2.0 3.0 0.00 0.95 0.00 86 1010.9
20260508000003 57 253 2.0 3.0 0.00 0.95 0.00 86 1010.9
20260507233904 57 259 5.0 5.0 0.00 0.95 0.00 85 1010.9
20260507231853 57 256 3.0 5.0 0.00 0.95 0.00 86 1011.1
20260507225817 57 256 3.0 5.0 0.00 0.95 0.00 86 1011.1
20260507223753 57 224 2.0 6.0 0.00 0.95 0.95 88 1011.5
20260507221759 57 224 2.0 6.0 0.00 0.95 0.95 88 1011.5
20260507215744 57 224 2.0 6.0 0.00 0.95 0.95 88 1011.5
20260507213629 57 224 2.0 6.0 0.00 0.95 0.95 88 1011.5
20260507211608 57 207 3.0 7.0 0.01 0.95 0.95 89 1011.5
20260507205603 57 246 3.0 7.0 0.03 0.95 0.95 90 1011.2
20260507203630 59 155 0.0 1.0 0.15 0.92 0.92 85 1010.7
20260507201550 59 155 0.0 1.0 0.15 0.92 0.92 85 1010.7
20260507195724 59 155 0.0 1.0 0.15 0.92 0.92 85 1010.7
20260507193739 59 155 0.0 1.0 0.15 0.92 0.92 85 1010.7
20260507191804 57 148 10.0 14.0 0.56 0.74 0.74 85 1010.1
20260507185713 57 148 10.0 14.0 0.56 0.74 0.74 85 1010.1
20260507183724 57 148 10.0 14.0 0.56 0.74 0.74 85 1010.1
20260507181633 58 135 15.0 21.0 0.58 0.69 0.69 86 1009.8
20260507175733 64 17 6.0 10.0 0.09 0.10 0.10 85 1008.8
20260507173918 64 17 6.0 10.0 0.09 0.10 0.10 85 1008.8
20260507172034 64 17 6.0 10.0 0.09 0.10 0.10 85 1008.8
20260507165819 64 17 6.0 10.0 0.09 0.10 0.10 85 1008.8
20260507163903 66 21 9.0 13.0 0.00 0.01 0.01 76 1008.4
20260507161958 66 21 9.0 13.0 0.00 0.01 0.01 76 1008.4
20260507160008 66 8 5.0 9.0 0.00 0.01 0.01 76 1008.3
20260507154107 66 45 8.0 12.0 0.00 0.01 0.01 76 1008.2
20260507152048 66 32 5.0 10.0 0.00 0.01 0.01 76 1008.2
20260507145833 67 31 5.0 10.0 0.00 0.01 0.01 74 1008.4
20260507143833 67 16 6.0 12.0 0.00 0.01 0.01 73 1008.8
20260507141749 67 16 6.0 12.0 0.00 0.01 0.01 73 1008.8
20260507135754 67 16 6.0 12.0 0.00 0.01 0.01 73 1008.8
20260507133706 67 22 5.0 12.0 0.00 0.00 0.00 74 1009.9
20260507131842 67 22 5.0 12.0 0.00 0.00 0.00 74 1009.9
20260507125705 67 22 5.0 12.0 0.00 0.00 0.00 74 1009.9
20260507123619 67 22 5.0 12.0 0.00 0.00 0.00 74 1009.9
20260507121629 67 22 5.0 12.0 0.00 0.00 0.00 74 1009.9
20260507115803 67 22 5.0 12.0 0.00 0.00 0.00 74 1009.9
20260507113740 67 41 5.0 8.0 0.00 0.00 0.00 73 1010.2
20260507111735 67 52 4.0 8.0 0.00 0.00 0.00 74 1010.2
20260507105754 67 40 6.0 8.0 0.00 0.00 0.00 75 1010.3
20260507103913 67 40 6.0 8.0 0.00 0.00 0.00 75 1010.3
20260507101913 67 40 6.0 8.0 0.00 0.00 0.00 75 1010.3
20260507100037 67 33 4.0 9.0 0.00 0.00 0.00 73 1010.5
20260507093829 67 31 2.0 7.0 0.00 0.00 0.00 76 1010.6
20260507091627 66 11 5.0 7.0 0.00 0.00 0.00 76 1010.5
20260507085533 66 22 2.0 8.0 0.00 0.00 0.00 75 1010.6
20260507083543 65 334 4.0 8.0 0.00 0.00 0.00 75 1010.2
20260507081534 64 312 4.0 7.0 0.00 0.00 0.00 75 1010.2
20260507075609 64 312 4.0 7.0 0.00 0.00 0.00 75 1010.2
20260507073639 63 267 4.0 6.0 0.00 0.00 0.00 75 1010.1
20260507071527 63 267 4.0 6.0 0.00 0.00 0.00 75 1010.1
20260507065524 61 208 5.0 6.0 0.00 0.00 0.00 79 1010.2
20260507063533 61 208 5.0 6.0 0.00 0.00 0.00 79 1010.2
20260507061709 60 263 4.0 6.0 0.00 0.00 0.00 78 1010.0
20260507055738 60 230 2.0 3.0 0.00 0.00 0.00 79 1009.5
20260507053619 60 230 2.0 3.0 0.00 0.00 0.00 79 1009.5
20260507051529 60 230 2.0 3.0 0.00 0.00 0.00 79 1009.5